Wind_Speed
19 18 18 19 19 18 17 16 15 14 14 13 13 12 11 11 10 10 10 8 6 6 6 7 7 8 8 8 8 8 8 9 8 8 7 7 7 8 9 9 8 8
18 18 18 18 18 17 17 15 14 13 13 12 12 12 11 11 11 11 11 9 7 6 6 6 6 7 8 8 8 8 9 10 10 10 9 8 8 8 9 10 10 10
17 17 17 17 18 18 16 15 14 13 13 12 11 11 11 11 11 11 11 10 9 7 6 6 6 6 7 7 7 8 9 10 10 11 11 10 9 9 9 10 11 11
15 15 15 16 17 17 16 15 14 13 13 12 11 10 10 9 10 11 12 12 11 9 8 7 7 7 7 8 8 8 9 10 11 12 12 12 11 11 10 11 11 12
14 14 15 15 16 16 16 15 14 13 13 12 11 10 9 9 9 10 12 13 12 12 11 10 9 9 9 9 9 9 9 10 11 12 13 13 13 12 12 12 12 13
14 14 14 14 14 14 14 15 15 14 13 13 13 13 12 11 11 11 13 14 14 14 14 13 13 12 12 12 11 11 11 11 11 12 13 14 14 13 13 13 13 13
14 14 14 13 13 13 13 15 16 16 15 15 15 15 15 15 15 15 15 16 17 17 17 17 16 16 15 14 14 13 13 12 12 13 13 14 15 14 14 14 14 14
15 15 14 14 14 14 15 15 16 16 17 17 16 16 17 18 18 19 19 19 19 20 20 19 19 19 18 17 16 16 15 15 14 14 15 15 15 16 15 15 15 15
15 15 16 16 16 16 16 17 17 17 18 18 18 18 18 19 20 21 21 21 22 22 22 22 21 21 21 20 19 18 17 17 16 16 16 16 16 16 17 16 15 16
16 16 17 17 17 17 18 19 19 19 19 19 19 20 20 20 21 22 22 22 23 23 24 24 23 23 23 22 21 21 20 19 18 18 17 18 18 17 17 17 16 17
18 18 18 18 18 19 20 20 21 20 20 20 20 20 20 20 21 22 23 23 23 24 24 25 24 23 23 23 22 22 22 21 20 19 19 19 19 19 18 18 18 18
19 19 19 19 20 20 21 21 21 20 19 19 19 18 18 18 20 21 22 22 24 25 25 25 25 24 24 23 22 22 22 22 22 21 20 20 20 20 19 19 19 20
20 20 20 21 21 21 21 21 20 19 17 17 17 17 16 17 18 19 20 20 22 24 24 24 25 25 23 23 22 21 22 23 24 23 22 22 21 21 21 20 20 21
20 20 21 21 22 22 21 21 20 18 17 16 16 16 16 16 15 16 18 19 20 21 23 23 23 24 23 22 21 22 22 23 24 25 25 23 22 22 22 21 21 22
20 21 21 21 22 22 21 20 19 19 17 17 17 17 16 16 15 15 16 19 19 19 21 21 21 22 23 22 22 23 24 24 25 26 26 24 23 23 22 22 22 22
19 20 21 22 22 22 21 20 20 20 19 18 17 17 16 16 15 14 15 17 18 17 18 19 20 20 22 23 23 24 25 24 23 24 24 24 22 21 22 22 22 22
17 18 19 21 22 22 22 22 21 20 20 18 17 16 16 16 16 15 14 15 16 16 16 17 17 17 18 20 21 22 22 21 20 20 21 22 21 20 20 21 22 22
17 17 18 20 22 23 23 22 22 21 19 18 16 16 17 17 16 15 14 14 14 14 14 14 14 14 15 16 17 18 19 19 19 19 19 20 21 20 20 20 20 21
19 19 18 19 21 23 23 22 21 20 18 17 17 17 18 17 16 15 14 13 13 13 13 13 13 13 14 15 16 17 19 20 19 19 19 19 20 20 20 20 20 20
20 20 20 20 21 23 23 21 21 20 19 18 19 19 18 17 16 15 15 14 14 14 14 14 13 13 13 14 16 17 19 20 20 19 18 18 19 20 21 21 21 21
19 19 20 21 21 22 22 20 21 21 20 20 20 19 18 18 17 16 16 16 15 15 15 15 14 13 13 14 16 17 19 21 21 21 19 18 19 20 21 21 22 23
16 17 19 21 21 21 20 19 21 22 22 21 20 19 19 19 18 17 17 17 17 18 17 16 16 16 15 15 17 18 21 22 23 23 23 22 21 21 21 22 23 24
15 15 17 19 20 19 18 18 21 22 22 22 20 19 19 19 19 19 19 20 20 20 20 19 18 18 18 18 19 20 23 25 26 27 27 27 26 25 24 24 25 26
18 15 16 17 18 18 17 18 20 21 22 22 21 20 20 20 21 21 21 21 21 21 22 21 21 21 21 21 22 23 25 28 30 32 32 31 31 31 30 29 30 31
21 19 17 16 16 16 16 17 18 20 21 21 21 21 20 20 20 20 19 20 20 21 21 22 23 24 25 25 26 27 28 30 32 34 35 35 35 35 35 35 34 34
24 22 19 17 15 15 16 16 17 19 20 21 21 21 20 20 19 18 18 19 20 21 22 23 24 26 27 28 29 30 31 33 34 35 36 36 38 39 39 39 38 37
Wind_Direction
226 226 228 232 233 236 238 239 240 241 243 244 245 248 251 255 256 254 254 259 274 292 293 283 274 269 268 270 272 275 278 281 287 292 298 304 306 308 309 309 309 309
228 228 231 236 239 242 245 246 247 249 250 251 252 253 255 256 255 255 257 261 271 287 296 297 294 286 280 277 274 274 275 278 283 288 291 295 297 300 303 305 306 307
232 232 233 237 242 246 251 253 254 255 255 256 257 259 261 260 257 255 257 260 265 274 286 297 305 306 302 296 289 283 279 278 280 283 287 290 292 294 297 301 304 306
242 241 240 240 244 249 255 259 259 258 257 258 259 262 266 265 259 254 253 257 262 268 276 287 296 304 309 310 308 303 294 286 281 280 283 286 288 289 292 296 300 303
249 249 249 249 250 253 257 260 260 258 255 255 258 262 265 265 260 254 250 253 260 265 270 277 284 290 296 303 310 313 309 301 290 282 280 282 284 286 288 292 296 300
248 250 251 252 251 251 252 254 256 256 255 254 256 259 262 263 261 256 253 254 258 262 266 269 274 278 282 290 299 307 311 310 303 292 282 279 280 283 286 288 292 296
244 246 248 249 249 248 248 249 251 254 256 256 257 259 261 263 262 260 258 258 259 261 264 265 268 272 274 279 286 294 301 306 308 303 292 283 280 281 283 285 289 294
240 244 247 249 251 252 253 254 255 256 258 259 260 261 262 264 264 264 264 263 262 263 264 265 267 268 270 273 276 281 289 297 302 305 302 295 286 281 280 283 287 291
245 250 253 255 257 258 259 260 261 261 262 263 263 263 264 265 265 266 267 266 266 266 267 266 266 267 267 269 271 274 281 288 295 300 303 303 295 286 281 281 283 285
250 254 258 260 261 262 262 262 262 263 263 264 266 267 268 268 268 268 268 268 267 268 269 269 267 266 266 267 268 272 276 283 290 295 298 301 299 292 283 279 279 280
251 254 258 261 263 263 264 265 265 266 266 267 267 268 269 270 272 272 271 271 269 268 268 269 269 268 268 268 267 269 274 280 286 289 292 294 295 292 285 278 275 274
254 256 259 260 260 261 262 264 266 267 267 267 266 267 268 270 272 274 274 272 271 269 267 268 270 270 269 269 269 268 272 278 282 284 286 286 287 288 283 275 271 271
253 254 254 255 256 257 259 263 266 266 265 264 264 266 269 271 272 273 273 271 269 269 268 266 266 268 269 270 270 270 271 275 279 281 281 281 281 281 278 272 269 268
254 250 248 250 252 255 260 263 266 267 264 261 263 266 269 271 272 271 272 272 268 265 265 265 264 265 268 269 269 270 269 271 275 277 278 278 277 276 275 270 266 267
259 254 249 248 250 255 261 263 264 264 262 260 261 264 267 271 275 275 273 273 271 265 263 265 264 263 265 266 266 267 268 268 270 274 276 277 277 276 275 271 267 267
265 262 256 251 250 255 260 260 259 260 261 260 260 262 267 273 279 280 273 269 271 269 265 266 266 265 265 265 266 267 268 268 269 272 276 279 280 280 278 276 273 269
271 268 262 256 252 254 257 258 257 257 259 261 262 264 271 277 281 281 274 268 269 270 267 267 268 267 265 264 264 265 268 271 271 272 276 282 285 285 283 281 279 277
269 268 265 262 258 257 259 259 258 258 261 264 265 268 273 278 280 279 276 271 269 269 266 264 264 264 263 263 264 266 270 273 276 276 278 282 286 288 288 286 285 285
266 266 265 264 263 261 261 261 261 263 265 265 264 267 273 279 282 281 279 274 269 267 265 263 261 261 262 264 267 270 272 274 277 279 281 284 287 290 291 292 293 293
268 264 262 261 261 261 262 264 265 265 263 260 261 267 273 279 281 278 276 273 269 267 266 264 260 257 258 262 265 269 272 275 278 280 283 286 287 289 292 295 298 298
271 261 258 257 258 260 262 265 264 261 258 256 259 265 271 275 276 275 274 273 270 268 265 262 259 255 254 256 261 266 270 274 280 283 284 285 284 286 289 293 296 297
268 260 259 257 256 257 260 261 261 257 254 253 256 263 268 272 273 271 269 267 265 265 265 263 259 256 254 254 259 265 271 275 279 282 284 285 284 283 285 287 290 292
256 257 262 258 256 255 256 259 259 255 252 253 256 261 264 265 265 262 261 261 262 265 268 267 263 260 258 256 256 260 267 274 278 281 284 287 287 288 289 289 289 290
247 250 260 259 255 251 250 255 256 253 252 254 256 258 258 257 258 259 262 265 267 269 270 269 268 267 266 264 262 263 266 272 276 280 284 287 289 290 290 289 289 289
241 244 253 256 253 247 244 249 253 253 253 255 256 258 258 258 261 264 268 272 274 275 275 275 274 274 274 274 274 274 275 277 279 282 286 289 289 289 289 288 288 287
239 241 246 248 249 245 242 244 249 252 254 257 259 261 262 264 268 270 272 275 277 278 279 278 277 276 276 276 276 276 277 278 279 281 285 287 288 288 289 289 289 289
Height
5923 5924 5926 5926 5928 5929 5930 5932 5933 5934 5935 5936 5937 5938 5939 5940 5940 5941 5941 5942 5942 5942 5942 5942 5942 5942 5943 5943 5943 5944 5944 5944 5945 5945 5945 5945 5945 5945 5945 5945 5944 5944
5922 5924 5925 5926 5927 5929 5930 5931 5932 5933 5935 5935 5936 5937 5938 5939 5940 5940 5940 5941 5941 5942 5942 5942 5942 5942 5942 5942 5943 5943 5943 5943 5944 5944 5944 5944 5944 5944 5944 5944 5944 5943
5922 5923 5925 5926 5927 5928 5929 5931 5932 5933 5934 5935 5936 5937 5937 5938 5939 5939 5940 5940 5941 5941 5941 5941 5941 5941 5941 5941 5942 5942 5942 5942 5942 5943 5943 5943 5943 5943 5943 5943 5943 5943
5922 5923 5924 5925 5926 5927 5929 5930 5931 5932 5933 5934 5935 5936 5936 5937 5938 5938 5939 5939 5940 5940 5940 5941 5941 5941 5941 5941 5941 5941 5941 5941 5941 5941 5942 5942 5942 5942 5942 5942 5942 5942
5921 5922 5923 5925 5926 5927 5928 5929 5930 5931 5932 5933 5934 5935 5936 5936 5937 5937 5938 5938 5938 5939 5939 5940 5940 5940 5940 5940 5940 5940 5940 5940 5940 5940 5940 5941 5941 5941 5941 5941 5940 5940
5919 5921 5922 5924 5925 5926 5927 5928 5929 5930 5932 5933 5933 5934 5934 5935 5936 5936 5936 5937 5937 5937 5938 5938 5939 5939 5939 5939 5939 5940 5939 5939 5939 5939 5939 5939 5939 5940 5940 5940 5939 5939
5918 5919 5921 5922 5924 5925 5926 5927 5928 5929 5930 5931 5932 5933 5933 5934 5934 5934 5935 5935 5935 5936 5936 5937 5937 5938 5938 5938 5938 5938 5938 5939 5938 5938 5938 5938 5938 5938 5938 5938 5938 5938
5917 5918 5920 5921 5922 5924 5925 5926 5927 5928 5929 5930 5931 5932 5932 5932 5932 5933 5933 5933 5933 5934 5934 5935 5936 5936 5937 5937 5937 5937 5937 5937 5938 5937 5937 5937 5937 5937 5937 5937 5937 5937
5916 5917 5919 5920 5921 5922 5923 5924 5925 5926 5927 5928 5929 5930 5930 5931 5931 5931 5931 5931 5932 5932 5932 5933 5934 5934 5935 5935 5935 5935 5936 5936 5936 5936 5936 5936 5936 5936 5936 5936 5936 5936
5914 5916 5917 5918 5920 5921 5921 5922 5923 5924 5925 5926 5927 5928 5928 5928 5928 5929 5929 5929 5930 5930 5930 5931 5932 5932 5933 5933 5934 5934 5934 5935 5935 5935 5935 5935 5934 5934 5934 5934 5934 5934
5913 5914 5915 5916 5917 5918 5919 5920 5921 5922 5923 5924 5925 5925 5926 5926 5926 5926 5927 5927 5927 5928 5928 5928 5929 5930 5930 5931 5932 5932 5932 5932 5933 5933 5933 5933 5933 5932 5932 5932 5932 5932
5911 5912 5913 5914 5915 5916 5917 5917 5919 5920 5921 5921 5922 5923 5924 5924 5924 5924 5924 5925 5925 5925 5926 5926 5927 5927 5928 5929 5930 5930 5930 5930 5930 5931 5931 5931 5931 5930 5930 5930 5930 5930
5909 5910 5911 5911 5912 5913 5914 5915 5916 5918 5918 5919 5920 5920 5921 5922 5922 5922 5922 5922 5922 5922 5923 5924 5924 5924 5926 5927 5927 5928 5928 5928 5927 5928 5928 5928 5928 5928 5928 5928 5928 5928
5907 5907 5908 5909 5910 5911 5912 5913 5914 5915 5916 5917 5917 5918 5919 5919 5920 5920 5920 5920 5920 5920 5920 5920 5921 5922 5923 5924 5925 5925 5925 5925 5925 5925 5925 5925 5926 5926 5925 5925 5926 5926
5904 5905 5906 5906 5907 5908 5909 5911 5912 5913 5914 5915 5916 5916 5916 5917 5918 5918 5918 5917 5917 5918 5918 5918 5919 5920 5921 5921 5922 5922 5922 5923 5923 5922 5922 5923 5923 5923 5923 5923 5924 5924
5901 5902 5903 5904 5905 5906 5907 5908 5909 5910 5911 5912 5913 5914 5914 5914 5915 5916 5916 5916 5915 5916 5916 5916 5917 5918 5919 5919 5919 5919 5919 5920 5921 5921 5920 5921 5921 5921 5921 5921 5922 5922
5899 5900 5900 5901 5903 5904 5905 5905 5906 5907 5909 5910 5911 5911 5912 5912 5913 5913 5913 5914 5913 5914 5914 5915 5915 5916 5917 5917 5917 5917 5917 5918 5919 5919 5919 5919 5919 5919 5920 5919 5919 5920
5897 5898 5898 5899 5900 5901 5902 5903 5904 5905 5906 5908 5908 5909 5909 5910 5910 5910 5911 5912 5912 5912 5913 5913 5914 5915 5915 5915 5915 5916 5916 5916 5916 5917 5917 5917 5917 5917 5918 5918 5918 5918
5895 5895 5896 5896 5897 5898 5900 5901 5902 5903 5904 5905 5906 5906 5907 5907 5908 5908 5909 5910 5910 5911 5911 5912 5913 5913 5914 5914 5914 5914 5914 5914 5914 5915 5915 5916 5916 5915 5915 5916 5916 5916
5893 5893 5894 5894 5895 5895 5897 5898 5900 5901 5902 5903 5903 5904 5905 5905 5906 5906 5907 5908 5909 5909 5910 5911 5911 5912 5912 5913 5913 5913 5912 5912 5912 5913 5914 5914 5914 5914 5913 5914 5914 5914
5891 5891 5891 5892 5892 5893 5895 5896 5897 5898 5899 5900 5901 5902 5903 5904 5904 5905 5905 5906 5907 5908 5908 5909 5910 5911 5911 5911 5911 5911 5911 5910 5911 5911 5912 5913 5912 5912 5912 5912 5912 5912
5889 5889 5889 5889 5890 5891 5892 5894 5895 5896 5897 5898 5899 5900 5901 5902 5902 5903 5904 5904 5905 5906 5907 5908 5908 5909 5910 5910 5910 5909 5909 5908 5909 5909 5909 5910 5910 5910 5910 5910 5910 5910
5887 5887 5887 5887 5888 5889 5890 5891 5892 5893 5894 5895 5897 5898 5899 5900 5900 5901 5902 5903 5904 5904 5905 5906 5907 5907 5908 5909 5909 5908 5907 5906 5906 5906 5906 5907 5907 5907 5908 5908 5908 5907
5885 5885 5885 5885 5886 5887 5888 5888 5889 5891 5892 5893 5894 5896 5897 5898 5898 5899 5900 5901 5902 5903 5904 5905 5905 5906 5906 5907 5907 5907 5906 5905 5904 5903 5903 5903 5904 5904 5904 5905 5905 5904
5882 5883 5883 5883 5884 5884 5885 5886 5887 5888 5890 5891 5892 5893 5894 5895 5896 5897 5898 5899 5900 5901 5902 5902 5903 5903 5903 5904 5904 5904 5903 5903 5902 5901 5900 5901 5900 5900 5900 5900 5900 5900
5879 5880 5881 5881 5882 5882 5883 5883 5885 5886 5887 5888 5889 5890 5891 5892 5894 5895 5896 5897 5898 5898 5899 5900 5900 5900 5901 5901 5901 5900 5900 5899 5898 5898 5898 5897 5896 5895 5895 5895 5895 5895